Time,TemperatureF,DewpointF,PressureIn,WindDirection,WindDirectionDegrees,WindSpeedMPH,WindSpeedGustMPH,Humidity,HourlyPrecipIn,Conditions,Clouds,dailyrainin,SoftwareType,DateUTC
2013-09-07 00:01:00,53.3,51.3,30.06,South,182,0.0,0.0,93,0.00,CLR,,0.00,WeatherDisplay:10.37,2013-09-07 04:01:00,
2013-09-07 00:02:00,53.3,51.3,30.06,South,182,0.0,0.0,93,0.00,CLR,,0.00,WeatherDisplay:10.37,2013-09-07 04:02:00,
2013-09-07 00:07:00,53.4,51.4,30.06,South,182,0.0,0.0,93,0.00,CLR,,0.00,WeatherDisplay:10.37,2013-09-07 04:07:00,
2013-09-07 00:12:00,53.5,51.5,30.05,South,182,0.0,0.0,93,0.00,CLR,,0.00,WeatherDisplay:10.37,2013-09-07 04:12:00,
2013-09-07 00:17:00,53.7,51.7,30.05,South,182,0.0,0.0,93,0.00,CLR,,0.00,WeatherDisplay:10.37,2013-09-07 04:17:00,
2013-09-07 00:22:00,53.8,51.8,30.05,South,182,0.0,0.0,93,0.00,CLR,,0.00,WeatherDisplay:10.37,2013-09-07 04:22:00,
2013-09-07 00:27:00,53.8,51.8,30.05,South,182,0.0,0.0,93,0.00,CLR,,0.00,WeatherDisplay:10.37,2013-09-07 04:27:00,
2013-09-07 00:32:00,53.8,51.8,30.05,South,182,0.0,0.0,93,0.00,CLR,,0.00,WeatherDisplay:10.37,2013-09-07 04:32:00,
2013-09-07 00:37:00,53.8,51.8,30.05,South,182,0.0,0.0,93,0.00,CLR,,0.00,WeatherDisplay:10.37,2013-09-07 04:37:00,
2013-09-07 00:42:00,53.9,51.9,30.05,South,182,0.0,0.0,93,0.00,CLR,,0.00,WeatherDisplay:10.37,2013-09-07 04:42:00,
2013-09-07 00:47:00,53.9,51.9,30.05,South,182,0.0,0.0,93,0.00,CLR,,0.00,WeatherDisplay:10.37,2013-09-07 04:47:00,
2013-09-07 00:52:00,54.0,52.0,30.05,South,182,0.0,0.0,93,0.00,CLR,,0.00,WeatherDisplay:10.37,2013-09-07 04:52:00,
2013-09-07 00:57:00,53.9,51.9,30.05,South,182,0.0,0.0,93,0.00,CLR,,0.00,WeatherDisplay:10.37,2013-09-07 04:57:00,
2013-09-07 01:02:00,54.0,52.0,30.05,South,182,0.0,0.0,93,0.00,CLR,,0.00,WeatherDisplay:10.37,2013-09-07 05:02:00,
2013-09-07 01:07:00,54.0,52.0,30.05,South,182,0.0,0.0,93,0.00,CLR,,0.00,WeatherDisplay:10.37,2013-09-07 05:07:00,
2013-09-07 01:12:00,54.0,52.0,30.05,South,182,0.0,0.0,93,0.00,CLR,,0.00,WeatherDisplay:10.37,2013-09-07 05:12:00,
2013-09-07 01:17:00,53.9,51.9,30.05,South,182,0.0,0.0,93,0.00,CLR,,0.00,WeatherDisplay:10.37,2013-09-07 05:17:00,
2013-09-07 01:22:00,53.9,51.9,30.05,South,182,0.0,0.0,93,0.00,CLR,,0.00,WeatherDisplay:10.37,2013-09-07 05:22:00,
2013-09-07 01:27:00,53.7,51.7,30.05,South,182,0.0,0.0,93,0.00,CLR,,0.00,WeatherDisplay:10.37,2013-09-07 05:27:00,
2013-09-07 01:32:00,53.6,51.6,30.04,South,182,0.0,0.0,93,0.00,CLR,,0.00,WeatherDisplay:10.37,2013-09-07 05:32:00,
2013-09-07 01:37:00,53.5,51.5,30.04,South,182,0.0,0.0,93,0.00,CLR,,0.00,WeatherDisplay:10.37,2013-09-07 05:37:00,
2013-09-07 01:43:00,53.4,51.4,30.04,South,182,0.0,0.0,93,0.00,CLR,,0.00,WeatherDisplay:10.37,2013-09-07 05:43:00,
2013-09-07 01:48:00,53.2,51.2,30.04,South,182,0.0,0.0,93,0.00,CLR,,0.00,WeatherDisplay:10.37,2013-09-07 05:48:00,
2013-09-07 01:53:00,53.1,51.1,30.04,South,182,0.0,0.0,93,0.00,CLR,,0.00,WeatherDisplay:10.37,2013-09-07 05:53:00,
2013-09-07 01:58:00,53.1,51.1,30.04,South,182,0.0,0.0,93,0.00,CLR,,0.00,WeatherDisplay:10.37,2013-09-07 05:58:00,
2013-09-07 02:03:00,53.0,51.0,30.04,South,182,0.0,0.0,93,0.00,CLR,,0.00,WeatherDisplay:10.37,2013-09-07 06:03:00,
2013-09-07 02:08:00,53.0,51.0,30.03,South,182,0.0,0.0,93,0.00,CLR,,0.00,WeatherDisplay:10.37,2013-09-07 06:08:00,
2013-09-07 02:13:00,53.0,51.0,30.03,South,182,0.0,0.0,93,0.00,CLR,,0.00,WeatherDisplay:10.37,2013-09-07 06:13:00,
2013-09-07 02:18:00,52.9,50.9,30.03,South,182,0.0,0.0,93,0.00,CLR,,0.00,WeatherDisplay:10.37,2013-09-07 06:18:00,
2013-09-07 02:23:00,52.8,50.8,30.03,South,182,0.0,0.0,93,0.00,CLR,,0.00,WeatherDisplay:10.37,2013-09-07 06:23:00,
2013-09-07 02:28:00,52.8,50.8,30.03,South,182,0.0,0.0,93,0.00,CLR,,0.00,WeatherDisplay:10.37,2013-09-07 06:28:00,
2013-09-07 02:33:00,52.8,50.8,30.03,South,182,0.0,0.0,93,0.00,CLR,,0.00,WeatherDisplay:10.37,2013-09-07 06:33:00,
2013-09-07 02:38:00,52.7,50.7,30.03,South,182,0.0,0.0,93,0.00,CLR,,0.00,WeatherDisplay:10.37,2013-09-07 06:38:00,
2013-09-07 02:43:00,52.6,50.6,30.03,South,182,0.0,0.0,93,0.00,CLR,,0.00,WeatherDisplay:10.37,2013-09-07 06:43:00,
2013-09-07 02:48:00,52.7,50.7,30.02,South,182,0.0,0.0,93,0.00,CLR,,0.00,WeatherDisplay:10.37,2013-09-07 06:48:00,
2013-09-07 02:53:00,52.8,50.8,30.03,South,182,0.0,0.0,93,0.00,CLR,,0.00,WeatherDisplay:10.37,2013-09-07 06:53:00,
2013-09-07 02:58:00,52.9,50.9,30.03,South,182,0.0,0.0,93,0.00,CLR,,0.00,WeatherDisplay:10.37,2013-09-07 06:58:00,
2013-09-07 03:03:00,53.0,51.0,30.03,South,182,0.0,0.0,93,0.00,CLR,,0.00,WeatherDisplay:10.37,2013-09-07 07:03:00,
2013-09-07 03:08:00,53.0,51.0,30.02,South,182,0.0,0.0,93,0.00,CLR,,0.00,WeatherDisplay:10.37,2013-09-07 07:08:00,
2013-09-07 03:13:00,53.1,51.1,30.02,South,182,0.0,0.0,93,0.00,CLR,,0.00,WeatherDisplay:10.37,2013-09-07 07:13:00,
2013-09-07 03:18:00,53.1,51.1,30.02,South,182,0.0,0.0,93,0.00,CLR,,0.00,WeatherDisplay:10.37,2013-09-07 07:18:00,
2013-09-07 03:23:00,53.2,51.2,30.02,South,182,0.0,0.0,93,0.00,CLR,,0.00,WeatherDisplay:10.37,2013-09-07 07:23:00,
2013-09-07 03:28:00,53.3,51.3,30.02,South,182,0.0,0.0,93,0.00,CLR,,0.00,WeatherDisplay:10.37,2013-09-07 07:28:00,
2013-09-07 03:33:00,53.4,51.4,30.02,South,182,0.0,0.0,93,0.00,CLR,,0.00,WeatherDisplay:10.37,2013-09-07 07:33:00,
2013-09-07 03:38:00,53.5,51.5,30.02,South,182,0.0,0.0,93,0.00,CLR,,0.00,WeatherDisplay:10.37,2013-09-07 07:38:00,
2013-09-07 03:43:00,53.6,51.6,30.02,South,182,0.0,0.0,93,0.00,CLR,,0.00,WeatherDisplay:10.37,2013-09-07 07:43:00,
2013-09-07 03:48:00,53.6,51.6,30.02,South,182,0.0,0.0,93,0.00,CLR,,0.00,WeatherDisplay:10.37,2013-09-07 07:48:00,
2013-09-07 03:53:00,53.7,51.7,30.02,South,182,0.0,0.0,93,0.00,CLR,,0.00,WeatherDisplay:10.37,2013-09-07 07:53:00,
2013-09-07 03:58:00,53.7,51.7,30.02,South,182,0.0,0.0,93,0.00,CLR,,0.00,WeatherDisplay:10.37,2013-09-07 07:58:00,
2013-09-07 04:03:00,53.7,51.7,30.02,South,182,0.0,0.0,93,0.00,CLR,,0.00,WeatherDisplay:10.37,2013-09-07 08:03:00,
2013-09-07 04:08:00,53.7,51.7,30.02,South,182,0.0,0.0,93,0.00,CLR,,0.00,WeatherDisplay:10.37,2013-09-07 08:08:00,
2013-09-07 04:13:00,53.7,51.7,30.02,South,182,0.0,0.0,93,0.00,CLR,,0.00,WeatherDisplay:10.37,2013-09-07 08:13:00,
2013-09-07 04:18:00,53.7,51.7,30.01,South,182,0.0,0.0,93,0.00,CLR,,0.00,WeatherDisplay:10.37,2013-09-07 08:18:00,
2013-09-07 04:23:00,53.7,51.7,30.02,South,182,0.0,0.0,93,0.00,CLR,,0.00,WeatherDisplay:10.37,2013-09-07 08:23:00,
2013-09-07 04:28:00,53.7,51.7,30.02,South,182,0.0,0.0,93,0.00,CLR,,0.00,WeatherDisplay:10.37,2013-09-07 08:28:00,
2013-09-07 04:33:00,53.8,51.8,30.02,South,182,0.0,0.0,93,0.00,CLR,,0.00,WeatherDisplay:10.37,2013-09-07 08:33:00,
2013-09-07 04:38:00,54.0,52.0,30.01,South,182,0.0,1.2,93,0.00,CLR,,0.00,WeatherDisplay:10.37,2013-09-07 08:38:00,
2013-09-07 04:43:00,54.1,52.1,30.01,South,182,0.1,1.2,93,0.00,CLR,,0.00,WeatherDisplay:10.37,2013-09-07 08:43:00,
2013-09-07 04:48:00,54.2,52.2,30.00,South,169,0.0,1.2,93,0.00,CLR,,0.00,WeatherDisplay:10.37,2013-09-07 08:48:00,
2013-09-07 04:53:00,54.4,52.4,30.00,SSE,168,1.0,3.5,93,0.00,CLR,,0.00,WeatherDisplay:10.37,2013-09-07 08:53:00,
2013-09-07 04:58:00,54.6,52.6,30.01,South,169,0.3,2.3,93,0.00,CLR,,0.00,WeatherDisplay:10.37,2013-09-07 08:58:00,
2013-09-07 05:03:00,54.7,52.7,30.00,SSE,168,0.0,0.0,93,0.00,CLR,,0.00,WeatherDisplay:10.37,2013-09-07 09:03:00,
2013-09-07 05:08:00,54.9,52.9,30.00,South,169,0.0,0.0,93,0.00,CLR,,0.00,WeatherDisplay:10.37,2013-09-07 09:08:00,
2013-09-07 05:13:00,55.1,53.1,30.00,SSE,168,0.0,0.0,93,0.00,CLR,,0.00,WeatherDisplay:10.37,2013-09-07 09:13:00,
2013-09-07 05:18:00,55.2,53.2,30.00,South,169,0.0,0.0,93,0.00,CLR,,0.00,WeatherDisplay:10.37,2013-09-07 09:18:00,
2013-09-07 05:23:00,55.2,53.2,30.00,SSE,168,0.0,0.0,93,0.00,CLR,,0.00,WeatherDisplay:10.37,2013-09-07 09:23:00,
2013-09-07 05:28:00,55.2,53.2,30.00,South,169,0.0,0.0,93,0.00,CLR,,0.00,WeatherDisplay:10.37,2013-09-07 09:28:00,
2013-09-07 05:33:00,55.2,53.2,30.00,South,169,0.0,0.0,93,0.00,CLR,,0.00,WeatherDisplay:10.37,2013-09-07 09:33:00,
2013-09-07 05:38:00,55.2,53.2,30.00,SSE,168,0.0,0.0,93,0.00,CLR,,0.00,WeatherDisplay:10.37,2013-09-07 09:38:00,
2013-09-07 05:43:00,55.2,53.2,30.00,SSE,168,0.0,0.0,93,0.00,CLR,,0.00,WeatherDisplay:10.37,2013-09-07 09:43:00,
2013-09-07 05:48:00,55.1,53.1,29.99,South,169,0.0,0.0,93,0.00,CLR,,0.00,WeatherDisplay:10.37,2013-09-07 09:48:00,
2013-09-07 05:53:00,55.0,53.0,29.99,South,169,0.0,0.0,93,0.00,CLR,,0.00,WeatherDisplay:10.37,2013-09-07 09:53:00,
2013-09-07 05:58:00,55.0,53.0,29.99,South,169,0.0,0.0,93,0.00,CLR,,0.00,WeatherDisplay:10.37,2013-09-07 09:58:00,
2013-09-07 06:03:00,55.0,53.0,29.99,South,169,0.0,0.0,93,0.00,CLR,,0.00,WeatherDisplay:10.37,2013-09-07 10:03:00,
2013-09-07 06:08:00,55.0,53.0,29.99,SSE,168,0.0,0.0,93,0.00,CLR,,0.00,WeatherDisplay:10.37,2013-09-07 10:08:00,
2013-09-07 06:13:00,55.1,53.1,29.99,South,169,0.0,0.0,93,0.00,CLR,,0.00,WeatherDisplay:10.37,2013-09-07 10:13:00,
2013-09-07 06:18:00,55.1,53.1,29.98,South,169,0.0,0.0,93,0.00,CLR,,0.00,WeatherDisplay:10.37,2013-09-07 10:18:00,
2013-09-07 06:23:00,55.1,53.1,29.98,South,169,0.0,0.0,93,0.00,CLR,,0.00,WeatherDisplay:10.37,2013-09-07 10:23:00,
2013-09-07 06:28:00,55.2,53.2,29.98,South,169,0.0,0.0,93,0.00,CLR,,0.00,WeatherDisplay:10.37,2013-09-07 10:28:00,
2013-09-07 06:33:00,55.2,53.2,29.98,SSE,168,0.0,0.0,93,0.00,CLR,,0.00,WeatherDisplay:10.37,2013-09-07 10:33:00,
2013-09-07 06:38:00,55.2,53.2,29.98,SSE,168,0.0,0.0,93,0.00,CLR,,0.00,WeatherDisplay:10.37,2013-09-07 10:38:00,
2013-09-07 06:43:00,55.3,53.3,29.99,South,169,0.0,0.0,93,0.00,CLR,,0.00,WeatherDisplay:10.37,2013-09-07 10:43:00,
2013-09-07 06:48:00,55.3,53.3,29.99,South,169,0.0,0.0,93,0.00,CLR,,0.00,WeatherDisplay:10.37,2013-09-07 10:48:00,
2013-09-07 06:53:00,55.4,53.4,29.99,SSE,168,0.0,2.3,93,0.00,CLR,,0.00,WeatherDisplay:10.37,2013-09-07 10:53:00,
2013-09-07 06:58:00,55.5,53.5,29.99,South,169,0.4,2.0,93,0.00,CLR,,0.00,WeatherDisplay:10.37,2013-09-07 10:58:00,
2013-09-07 07:03:00,55.6,53.6,29.99,South,169,0.0,3.5,93,0.00,CLR,,0.00,WeatherDisplay:10.37,2013-09-07 11:03:00,
2013-09-07 07:08:00,55.8,53.8,29.99,South,169,0.6,3.5,93,0.00,CLR,,0.00,WeatherDisplay:10.37,2013-09-07 11:08:00,
2013-09-07 07:13:00,56.0,54.0,29.99,South,169,0.1,0.0,93,0.00,BKN,,0.00,WeatherDisplay:10.37,2013-09-07 11:13:00,
2013-09-07 07:18:00,56.2,54.2,30.00,South,169,0.0,0.0,93,0.00,BKN,,0.00,WeatherDisplay:10.37,2013-09-07 11:18:00,
2013-09-07 07:23:00,56.3,54.3,30.00,South,169,0.0,0.0,93,0.00,BKN,,0.00,WeatherDisplay:10.37,2013-09-07 11:23:00,
2013-09-07 07:28:00,56.5,54.5,30.00,South,169,0.0,0.0,93,0.00,BKN,,0.00,WeatherDisplay:10.37,2013-09-07 11:28:00,
2013-09-07 07:33:00,56.6,54.6,30.00,South,169,0.0,0.0,93,0.00,BKN,,0.00,WeatherDisplay:10.37,2013-09-07 11:33:00,
2013-09-07 07:39:00,56.8,54.8,30.00,South,169,0.0,0.0,93,0.00,BKN,,0.00,WeatherDisplay:10.37,2013-09-07 11:39:00,
2013-09-07 07:44:00,56.9,54.9,30.00,South,169,0.0,0.0,93,0.00,BKN,,0.00,WeatherDisplay:10.37,2013-09-07 11:44:00,
2013-09-07 07:49:00,56.9,54.9,29.99,South,170,0.0,0.0,93,0.00,BKN,,0.00,WeatherDisplay:10.37,2013-09-07 11:49:00,
2013-09-07 07:54:00,57.0,55.0,29.99,South,169,0.0,0.0,93,0.00,BKN,,0.00,WeatherDisplay:10.37,2013-09-07 11:54:00,
2013-09-07 07:59:00,57.0,55.0,30.00,South,169,0.0,0.0,93,0.00,BKN,,0.00,WeatherDisplay:10.37,2013-09-07 11:59:00,
2013-09-07 08:04:00,57.1,55.1,30.00,South,169,0.1,0.0,93,0.00,OVC,,0.00,WeatherDisplay:10.37,2013-09-07 12:04:00,
2013-09-07 08:09:00,57.2,55.2,30.00,South,172,0.6,0.0,93,0.00,OVC,,0.00,WeatherDisplay:10.37,2013-09-07 12:09:00,
2013-09-07 08:14:00,57.5,55.5,29.99,South,172,0.4,1.2,93,0.00,OVC,,0.00,WeatherDisplay:10.37,2013-09-07 12:14:00,
2013-09-07 08:19:00,57.9,55.9,29.99,South,172,0.0,1.2,93,0.00,OVC,,0.00,WeatherDisplay:10.37,2013-09-07 12:19:00,
2013-09-07 08:24:00,58.2,56.2,29.99,South,173,0.3,2.0,93,0.00,OVC,,0.00,WeatherDisplay:10.37,2013-09-07 12:24:00,
2013-09-07 08:29:00,58.7,56.7,29.99,South,172,0.1,1.2,93,0.00,OVC,,0.00,WeatherDisplay:10.37,2013-09-07 12:29:00,
2013-09-07 08:34:00,59.0,57.0,29.99,South,173,0.0,0.0,93,0.00,OVC,,0.00,WeatherDisplay:10.37,2013-09-07 12:34:00,
2013-09-07 08:39:00,59.1,57.1,29.99,South,173,0.1,1.0,93,0.00,OVC,,0.00,WeatherDisplay:10.37,2013-09-07 12:39:00,
2013-09-07 08:44:00,59.5,57.5,29.98,South,173,0.2,1.2,93,0.00,OVC,,0.00,WeatherDisplay:10.37,2013-09-07 12:44:00,
2013-09-07 08:49:00,59.8,57.8,29.98,South,173,0.0,0.0,93,0.00,OVC,,0.00,WeatherDisplay:10.37,2013-09-07 12:49:00,
2013-09-07 08:54:00,60.1,58.1,29.98,South,173,0.0,0.0,93,0.00,OVC,,0.00,WeatherDisplay:10.37,2013-09-07 12:54:00,
2013-09-07 08:59:00,60.3,58.3,29.98,South,173,0.1,0.0,93,0.00,OVC,,0.00,WeatherDisplay:10.37,2013-09-07 12:59:00,
2013-09-07 09:04:00,60.5,58.5,29.98,South,172,0.0,0.0,93,0.00,OVC,,0.00,WeatherDisplay:10.37,2013-09-07 13:04:00,
2013-09-07 09:09:00,60.7,58.7,29.98,South,172,0.0,1.2,93,0.00,OVC,,0.00,WeatherDisplay:10.37,2013-09-07 13:09:00,
2013-09-07 09:14:00,60.9,58.9,29.98,South,173,0.0,0.0,93,0.00,OVC,,0.00,WeatherDisplay:10.37,2013-09-07 13:14:00,
2013-09-07 09:19:00,61.1,59.1,29.98,South,173,0.0,0.0,93,0.00,OVC,,0.00,WeatherDisplay:10.37,2013-09-07 13:19:00,
2013-09-07 09:24:00,61.4,59.4,29.98,South,175,0.1,1.2,93,0.00,OVC,,0.00,WeatherDisplay:10.37,2013-09-07 13:24:00,
2013-09-07 09:29:00,61.6,59.6,29.99,South,189,0.0,4.6,93,0.00,OVC,,0.00,WeatherDisplay:10.37,2013-09-07 13:29:00,
2013-09-07 09:34:00,61.8,59.5,29.99,South,188,0.0,1.0,92,0.00,OVC,,0.00,WeatherDisplay:10.37,2013-09-07 13:34:00,
2013-09-07 09:39:00,61.9,59.2,29.99,South,184,2.2,3.5,91,0.00,OVC,,0.00,WeatherDisplay:10.37,2013-09-07 13:39:00,
2013-09-07 09:44:00,61.8,58.8,29.99,South,186,0.0,0.0,90,0.00,OVC,,0.00,WeatherDisplay:10.37,2013-09-07 13:44:00,
2013-09-07 09:49:00,61.9,58.6,29.98,South,187,2.0,3.0,89,0.00,OVC,,0.00,WeatherDisplay:10.37,2013-09-07 13:49:00,
2013-09-07 09:54:00,62.3,58.7,29.98,South,187,0.9,0.0,88,0.00,OVC,,0.00,WeatherDisplay:10.37,2013-09-07 13:54:00,
2013-09-07 09:59:00,62.6,58.3,29.97,SSW,196,2.0,7.0,86,0.00,OVC,,0.00,WeatherDisplay:10.37,2013-09-07 13:59:00,
2013-09-07 10:04:00,62.9,58.0,29.97,South,185,2.4,3.5,84,0.00,OVC,,0.00,WeatherDisplay:10.37,2013-09-07 14:04:00,
2013-09-07 10:09:00,63.2,58.3,29.97,SSW,198,1.1,4.6,84,0.00,OVC,,0.00,WeatherDisplay:10.37,2013-09-07 14:09:00,
2013-09-07 10:14:00,63.3,57.7,29.97,South,189,0.9,3.5,82,0.00,OVC,,0.00,WeatherDisplay:10.37,2013-09-07 14:14:00,
2013-09-07 10:19:00,63.5,57.9,29.97,South,190,1.7,4.6,82,0.00,OVC,,0.00,WeatherDisplay:10.37,2013-09-07 14:19:00,
2013-09-07 10:24:00,63.6,58.0,29.97,South,186,0.0,0.0,82,0.00,OVC,,0.00,WeatherDisplay:10.37,2013-09-07 14:24:00,
2013-09-07 10:29:00,63.7,58.1,29.96,South,189,0.4,3.5,82,0.00,OVC,,0.00,WeatherDisplay:10.37,2013-09-07 14:29:00,
2013-09-07 10:34:00,63.6,57.7,29.96,SSW,205,0.9,4.0,81,0.00,OVC,,0.00,WeatherDisplay:10.37,2013-09-07 14:34:00,
2013-09-07 10:39:00,63.9,57.6,29.96,SSW,204,0.1,3.5,80,0.00,OVC,,0.00,WeatherDisplay:10.37,2013-09-07 14:39:00,
2013-09-07 10:44:00,64.0,57.7,29.97,SSW,200,0.0,0.0,80,0.00,OVC,,0.00,WeatherDisplay:10.37,2013-09-07 14:44:00,
2013-09-07 10:49:00,64.1,57.8,29.97,SSW,202,1.9,3.5,80,0.00,OVC,,0.00,WeatherDisplay:10.37,2013-09-07 14:49:00,
2013-09-07 10:54:00,64.3,58.0,29.97,SW,223,0.8,4.6,80,0.00,-RA,,0.00,WeatherDisplay:10.37,2013-09-07 14:54:00,
2013-09-07 10:59:00,64.5,57.8,29.97,SW,222,0.7,3.5,79,0.00,-RA,,0.00,WeatherDisplay:10.37,2013-09-07 14:59:00,
2013-09-07 11:04:00,64.6,57.9,29.96,SSW,192,0.0,0.0,79,0.00,-RA,,0.00,WeatherDisplay:10.37,2013-09-07 15:04:00,
2013-09-07 11:09:00,64.6,57.9,29.96,SSW,192,0.0,0.0,79,0.00,-RA,,0.00,WeatherDisplay:10.37,2013-09-07 15:09:00,
2013-09-07 11:14:00,64.6,57.9,29.96,SSW,192,0.0,0.0,79,0.00,-RA,,0.00,WeatherDisplay:10.37,2013-09-07 15:14:00,
2013-09-07 11:19:00,64.6,57.9,29.96,SSW,194,0.1,3.5,79,0.00,-RA,,0.00,WeatherDisplay:10.37,2013-09-07 15:19:00,
2013-09-07 11:24:00,64.5,57.8,29.96,SSW,199,1.4,4.6,79,0.00,-RA,,0.00,WeatherDisplay:10.37,2013-09-07 15:24:00,
2013-09-07 11:29:00,64.6,58.3,29.96,SSW,201,0.3,1.2,80,0.00,-RA,,0.00,WeatherDisplay:10.37,2013-09-07 15:29:00,
2013-09-07 11:34:00,64.6,57.9,29.96,SSW,204,2.9,4.6,79,0.00,-RA,,0.00,WeatherDisplay:10.37,2013-09-07 15:34:00,
2013-09-07 11:39:00,64.8,58.5,29.96,SSW,203,0.0,0.0,80,0.00,-RA,,0.00,WeatherDisplay:10.37,2013-09-07 15:39:00,
2013-09-07 11:44:00,64.8,58.5,29.96,SSW,205,0.3,0.0,80,0.00,-RA,,0.00,WeatherDisplay:10.37,2013-09-07 15:44:00,
2013-09-07 11:49:00,64.8,58.5,29.95,SSW,205,0.7,4.6,80,0.00,-RA,,0.00,WeatherDisplay:10.37,2013-09-07 15:49:00,
2013-09-07 11:54:00,64.7,58.7,29.95,South,191,3.5,4.6,81,0.00,-RA,,0.00,WeatherDisplay:10.37,2013-09-07 15:54:00,
2013-09-07 11:59:00,64.6,58.6,29.95,SSW,205,2.8,8.1,81,0.00,-RA,,0.00,WeatherDisplay:10.37,2013-09-07 15:59:00,
2013-09-07 12:04:00,64.6,58.6,29.95,South,185,1.0,3.5,81,0.00,-RA,,0.00,WeatherDisplay:10.37,2013-09-07 16:04:00,
2013-09-07 12:09:00,64.5,58.2,29.94,SSW,192,2.3,6.9,80,0.00,-RA,,0.00,WeatherDisplay:10.37,2013-09-07 16:09:00,
2013-09-07 12:14:00,64.6,58.3,29.94,South,188,2.8,6.9,80,0.00,-RA,,0.00,WeatherDisplay:10.37,2013-09-07 16:14:00,
2013-09-07 12:19:00,64.8,58.5,29.94,SSW,203,1.5,3.5,80,0.00,-RA,,0.00,WeatherDisplay:10.37,2013-09-07 16:19:00,
2013-09-07 12:24:00,64.9,58.6,29.94,SSW,207,1.0,3.5,80,0.00,-RA,,0.00,WeatherDisplay:10.37,2013-09-07 16:24:00,
2013-09-07 12:29:00,64.8,58.5,29.94,SSW,207,1.4,3.5,80,0.00,-RA,,0.00,WeatherDisplay:10.37,2013-09-07 16:29:00,
2013-09-07 12:34:00,64.9,58.9,29.94,SSW,209,0.1,0.0,81,0.00,-RA,,0.01,WeatherDisplay:10.37,2013-09-07 16:34:00,
2013-09-07 12:39:00,64.6,59.0,29.93,SSW,209,1.5,3.5,82,0.02,-RA,,0.02,WeatherDisplay:10.37,2013-09-07 16:39:00,
2013-09-07 12:44:00,64.2,59.6,29.93,SSW,211,0.7,2.3,85,0.03,-RA,,0.03,WeatherDisplay:10.37,2013-09-07 16:44:00,
2013-09-07 12:49:00,63.9,59.6,29.92,SSW,209,0.8,0.0,86,0.04,-RA,,0.04,WeatherDisplay:10.37,2013-09-07 16:49:00,
2013-09-07 12:54:00,63.6,59.7,29.91,South,180,2.6,4.6,87,0.04,-RA,,0.04,WeatherDisplay:10.37,2013-09-07 16:54:00,
2013-09-07 12:59:00,63.5,59.9,29.92,SSW,192,3.9,6.9,88,0.04,-RA,,0.04,WeatherDisplay:10.37,2013-09-07 16:59:00,
2013-09-07 13:04:00,63.6,60.3,29.92,SSW,205,3.0,4.0,89,0.04,-RA,,0.04,WeatherDisplay:10.37,2013-09-07 17:04:00,
2013-09-07 13:09:00,63.8,60.5,29.92,South,179,2.5,6.9,89,0.04,-RA,,0.04,WeatherDisplay:10.37,2013-09-07 17:09:00,
2013-09-07 13:14:00,64.0,60.7,29.92,SSW,196,2.6,5.8,89,0.04,-RA,,0.04,WeatherDisplay:10.37,2013-09-07 17:14:00,
2013-09-07 13:19:00,64.1,60.8,29.92,SSW,204,1.8,8.1,89,0.04,-RA,,0.04,WeatherDisplay:10.37,2013-09-07 17:19:00,
2013-09-07 13:24:00,64.1,60.8,29.92,SSW,196,0.5,3.5,89,0.04,-RA,,0.04,WeatherDisplay:10.37,2013-09-07 17:24:00,
2013-09-07 13:29:00,64.1,60.8,29.92,SSW,195,4.9,10.4,89,0.04,-RA,,0.04,WeatherDisplay:10.37,2013-09-07 17:29:00,
2013-09-07 13:34:00,64.1,60.5,29.92,SSW,205,2.2,4.6,88,0.04,-RA,,0.04,WeatherDisplay:10.37,2013-09-07 17:34:00,
2013-09-07 13:39:00,63.9,60.3,29.92,SSW,194,8.3,12.7,88,0.02,-RA,,0.04,WeatherDisplay:10.37,2013-09-07 17:39:00,
2013-09-07 13:44:00,63.7,60.1,29.92,SW,221,4.6,11.5,88,0.01,-RA,,0.04,WeatherDisplay:10.37,2013-09-07 17:44:00,
2013-09-07 13:49:00,63.5,60.2,29.92,WSW,241,6.1,11.5,89,0.00,-RA,,0.04,WeatherDisplay:10.37,2013-09-07 17:49:00,
2013-09-07 13:55:00,63.2,59.9,29.92,SW,229,3.6,9.2,89,0.01,-RA,,0.05,WeatherDisplay:10.37,2013-09-07 17:55:00,
2013-09-07 14:00:00,63.1,60.1,29.92,SW,230,7.7,11.5,90,0.02,-RA,,0.06,WeatherDisplay:10.37,2013-09-07 18:00:00,
2013-09-07 14:05:00,63.0,60.0,29.92,SW,215,3.3,11.5,90,0.04,RA,,0.08,WeatherDisplay:10.37,2013-09-07 18:05:00,
2013-09-07 14:10:00,62.9,60.2,29.92,SSW,209,6.2,6.9,91,0.05,RA,,0.09,WeatherDisplay:10.37,2013-09-07 18:10:00,
2013-09-07 14:15:00,62.8,60.1,29.92,SW,225,5.2,11.5,91,0.05,-RA,,0.09,WeatherDisplay:10.37,2013-09-07 18:15:00,
2013-09-07 14:20:00,62.8,60.4,29.93,SW,219,4.9,10.4,92,0.05,-RA,,0.09,WeatherDisplay:10.37,2013-09-07 18:20:00,
2013-09-07 14:25:00,62.8,60.4,29.92,SW,221,12.6,19.6,92,0.07,-RA,,0.12,WeatherDisplay:10.37,2013-09-07 18:25:00,
2013-09-07 14:30:00,62.8,60.4,29.92,SW,219,6.5,10.4,92,0.08,-RA,,0.12,WeatherDisplay:10.37,2013-09-07 18:30:00,
2013-09-07 14:35:00,62.6,60.2,29.93,SSW,210,7.5,10.4,92,0.10,RA,,0.14,WeatherDisplay:10.37,2013-09-07 18:35:00,
2013-09-07 14:40:00,62.5,60.1,29.92,SW,214,9.0,15.0,92,0.11,RA,,0.16,WeatherDisplay:10.37,2013-09-07 18:40:00,
2013-09-07 14:45:00,62.3,59.9,29.92,South,172,5.1,8.0,92,0.15, +RA,,0.19,WeatherDisplay:10.37,2013-09-07 18:45:00,
2013-09-07 14:50:00,62.1,59.7,29.91,SSW,210,5.0,12.7,92,0.18, +RA,,0.22,WeatherDisplay:10.37,2013-09-07 18:50:00,
2013-09-07 14:55:00,61.8,59.5,29.91,SSW,203,7.8,10.4,92,0.18, +RA,,0.24,WeatherDisplay:10.37,2013-09-07 18:55:00,
2013-09-07 15:00:00,61.7,59.7,29.91,SSW,194,5.7,11.5,93,0.18, +RA,,0.24,WeatherDisplay:10.37,2013-09-07 19:00:00,
2013-09-07 15:05:00,61.5,59.2,29.91,SW,231,5.6,11.5,92,0.16,-RA,,0.24,WeatherDisplay:10.37,2013-09-07 19:05:00,
2013-09-07 15:10:00,61.5,59.5,29.91,SSW,195,3.7,6.9,93,0.15,-RA,,0.24,WeatherDisplay:10.37,2013-09-07 19:10:00,
2013-09-07 15:15:00,61.6,59.6,29.90,South,173,4.5,6.9,93,0.15,-RA,,0.25,WeatherDisplay:10.37,2013-09-07 19:15:00,
2013-09-07 15:20:00,61.7,59.7,29.90,SSW,210,3.5,9.2,93,0.16,-RA,,0.25,WeatherDisplay:10.37,2013-09-07 19:20:00,
2013-09-07 15:25:00,61.8,59.8,29.91,SSW,203,3.9,10.4,93,0.14,-RA,,0.25,WeatherDisplay:10.37,2013-09-07 19:25:00,
2013-09-07 15:30:00,61.8,59.8,29.90,SW,217,4.6,15.0,93,0.13,-RA,,0.25,WeatherDisplay:10.37,2013-09-07 19:30:00,
2013-09-07 15:35:00,61.8,59.8,29.90,SSW,202,7.6,18.4,93,0.11,-RA,,0.25,WeatherDisplay:10.37,2013-09-07 19:35:00,
2013-09-07 15:40:00,61.8,59.8,29.90,WSW,244,5.3,9.2,93,0.10,-RA,,0.25,WeatherDisplay:10.37,2013-09-07 19:40:00,
2013-09-07 15:45:00,61.7,59.7,29.90,SSE,151,5.4,9.2,93,0.06,-RA,,0.25,WeatherDisplay:10.37,2013-09-07 19:45:00,
2013-09-07 15:50:00,61.7,59.7,29.90,SW,216,4.3,11.5,93,0.03,-RA,,0.25,WeatherDisplay:10.37,2013-09-07 19:50:00,
2013-09-07 15:55:00,61.8,59.8,29.89,SE,134,7.6,9.2,93,0.02,OVC,,0.25,WeatherDisplay:10.37,2013-09-07 19:55:00,
2013-09-07 16:00:00,61.7,59.7,29.89,SW,223,6.8,11.5,93,0.01,OVC,,0.25,WeatherDisplay:10.37,2013-09-07 20:00:00,
2013-09-07 16:05:00,61.8,59.8,29.89,SSE,167,7.4,16.1,93,0.02,RA,,0.26,WeatherDisplay:10.37,2013-09-07 20:05:00,
2013-09-07 16:10:00,61.9,59.9,29.89,South,179,7.5,8.1,93,0.02,RA,,0.26,WeatherDisplay:10.37,2013-09-07 20:10:00,
2013-09-07 16:15:00,62.0,60.0,29.89,SW,223,5.0,9.2,93,0.03,-RA,,0.28,WeatherDisplay:10.37,2013-09-07 20:15:00,
2013-09-07 16:20:00,62.1,60.1,29.89,SSW,213,6.6,9.2,93,0.03,-RA,,0.28,WeatherDisplay:10.37,2013-09-07 20:20:00,
2013-09-07 16:25:00,62.2,60.2,29.88,SSW,204,5.7,9.2,93,0.03,-RA,,0.28,WeatherDisplay:10.37,2013-09-07 20:25:00,
2013-09-07 16:30:00,62.3,60.2,29.88,South,184,4.5,11.5,93,0.04,-RA,,0.29,WeatherDisplay:10.37,2013-09-07 20:30:00,
2013-09-07 16:35:00,62.5,60.4,29.88,SSW,207,8.6,12.7,93,0.04,-RA,,0.29,WeatherDisplay:10.37,2013-09-07 20:35:00,
2013-09-07 16:40:00,62.5,60.4,29.88,SW,225,4.0,6.9,93,0.04,-RA,,0.29,WeatherDisplay:10.37,2013-09-07 20:40:00,
2013-09-07 16:45:00,62.6,60.5,29.89,SW,217,3.9,6.9,93,0.05,-RA,,0.30,WeatherDisplay:10.37,2013-09-07 20:45:00,
2013-09-07 16:50:00,62.8,60.7,29.89,South,184,5.4,8.1,93,0.05,-RA,,0.30,WeatherDisplay:10.37,2013-09-07 20:50:00,
2013-09-07 16:55:00,62.8,60.7,29.88,SSW,209,1.9,4.6,93,0.05,-RA,,0.30,WeatherDisplay:10.37,2013-09-07 20:55:00,
2013-09-07 17:00:00,62.9,60.8,29.88,South,189,1.2,6.9,93,0.05,-RA,,0.30,WeatherDisplay:10.37,2013-09-07 21:00:00,
2013-09-07 17:05:00,63.0,60.9,29.88,South,186,2.2,8.1,93,0.05,-RA,,0.30,WeatherDisplay:10.37,2013-09-07 21:05:00,
2013-09-07 17:10:00,63.1,61.0,29.88,SSW,203,1.2,4.6,93,0.04,-RA,,0.30,WeatherDisplay:10.37,2013-09-07 21:10:00,
2013-09-07 17:15:00,63.1,61.0,29.87,SSW,207,2.6,6.9,93,0.03,-RA,,0.30,WeatherDisplay:10.37,2013-09-07 21:15:00,
2013-09-07 17:20:00,63.1,61.0,29.87,SSW,200,4.1,6.9,93,0.02,-RA,,0.30,WeatherDisplay:10.37,2013-09-07 21:20:00,
2013-09-07 17:25:00,63.1,61.0,29.87,SW,215,0.8,5.8,93,0.02,-RA,,0.30,WeatherDisplay:10.37,2013-09-07 21:25:00,
2013-09-07 17:30:00,63.1,61.0,29.86,SSE,155,0.3,2.3,93,0.01,-RA,,0.30,WeatherDisplay:10.37,2013-09-07 21:30:00,
2013-09-07 17:35:00,63.1,61.0,29.86,South,178,3.5,5.8,93,0.01,BKN,,0.30,WeatherDisplay:10.37,2013-09-07 21:35:00,
2013-09-07 17:40:00,63.2,61.1,29.87,SSW,207,3.1,5.8,93,0.01,BKN,,0.30,WeatherDisplay:10.37,2013-09-07 21:40:00,
2013-09-07 17:45:00,63.2,61.1,29.87,SSW,205,2.6,4.6,93,0.00,BKN,,0.30,WeatherDisplay:10.37,2013-09-07 21:45:00,
2013-09-07 17:50:00,63.3,61.2,29.87,South,189,4.2,7.0,93,0.00,BKN,,0.30,WeatherDisplay:10.37,2013-09-07 21:50:00,
2013-09-07 17:55:00,63.4,61.3,29.86,South,190,3.4,6.0,93,0.00,BKN,,0.30,WeatherDisplay:10.37,2013-09-07 21:55:00,
2013-09-07 18:00:00,63.5,61.4,29.86,SSW,209,1.7,3.5,93,0.00,BKN,,0.30,WeatherDisplay:10.37,2013-09-07 22:00:00,
2013-09-07 18:05:00,63.6,61.5,29.86,SW,227,0.8,3.5,93,0.00,BKN,,0.30,WeatherDisplay:10.37,2013-09-07 22:05:00,
2013-09-07 18:10:00,63.8,61.7,29.86,SSW,192,1.1,3.5,93,0.00,BKN,,0.30,WeatherDisplay:10.37,2013-09-07 22:10:00,
2013-09-07 18:15:00,64.0,61.9,29.87,SSW,192,1.8,3.5,93,0.00,BKN,,0.30,WeatherDisplay:10.37,2013-09-07 22:15:00,
2013-09-07 18:20:00,64.1,62.0,29.86,SSW,196,1.1,6.0,93,0.00,BKN,,0.30,WeatherDisplay:10.37,2013-09-07 22:20:00,
2013-09-07 18:25:00,64.2,62.1,29.87,South,187,1.9,4.6,93,0.00,BKN,,0.30,WeatherDisplay:10.37,2013-09-07 22:25:00,
2013-09-07 18:30:00,64.3,62.2,29.87,SSW,196,0.6,3.5,93,0.00,BKN,,0.30,WeatherDisplay:10.37,2013-09-07 22:30:00,
2013-09-07 18:35:00,64.6,62.5,29.87,South,190,0.9,4.6,93,0.00,BKN,,0.30,WeatherDisplay:10.37,2013-09-07 22:35:00,
2013-09-07 18:40:00,64.9,62.8,29.87,SSW,202,2.0,3.5,93,0.00,BKN,,0.30,WeatherDisplay:10.37,2013-09-07 22:40:00,
2013-09-07 18:45:00,65.3,63.2,29.87,SSW,200,1.0,4.6,93,0.00,BKN,,0.30,WeatherDisplay:10.37,2013-09-07 22:45:00,
2013-09-07 18:50:00,65.6,63.2,29.86,SSW,204,4.0,6.9,92,0.00,BKN,,0.30,WeatherDisplay:10.37,2013-09-07 22:50:00,
2013-09-07 18:55:00,65.7,63.3,29.86,SW,219,4.1,6.9,92,0.00,BKN,,0.30,WeatherDisplay:10.37,2013-09-07 22:55:00,
2013-09-07 19:00:00,65.7,63.0,29.86,SSW,196,5.0,12.7,91,0.00,BKN,,0.30,WeatherDisplay:10.37,2013-09-07 23:00:00,
2013-09-07 19:05:00,65.7,63.0,29.86,SW,217,0.1,6.9,91,0.00,BKN,,0.30,WeatherDisplay:10.37,2013-09-07 23:05:00,
2013-09-07 19:11:00,65.6,62.9,29.86,South,186,2.9,3.5,91,0.00,BKN,,0.30,WeatherDisplay:10.37,2013-09-07 23:11:00,
2013-09-07 19:16:00,65.5,62.5,29.86,SW,222,1.9,5.8,90,0.00,BKN,,0.30,WeatherDisplay:10.37,2013-09-07 23:16:00,
2013-09-07 19:21:00,65.4,62.4,29.86,South,188,2.4,5.8,90,0.00,BKN,,0.30,WeatherDisplay:10.37,2013-09-07 23:21:00,
2013-09-07 19:26:00,65.2,62.2,29.86,SSW,203,3.5,5.8,90,0.00,BKN,,0.30,WeatherDisplay:10.37,2013-09-07 23:26:00,
2013-09-07 19:31:00,65.1,62.1,29.86,SSW,203,0.6,3.5,90,0.00,BKN,,0.30,WeatherDisplay:10.37,2013-09-07 23:31:00,
2013-09-07 19:36:00,64.9,61.9,29.86,SSW,201,0.2,2.3,90,0.00,BKN,,0.30,WeatherDisplay:10.37,2013-09-07 23:36:00,
2013-09-07 19:41:00,64.7,61.7,29.86,SSW,200,2.1,3.5,90,0.00,BKN,,0.30,WeatherDisplay:10.37,2013-09-07 23:41:00,
2013-09-07 19:46:00,64.6,61.9,29.86,SSW,200,1.3,2.3,91,0.00,BKN,,0.30,WeatherDisplay:10.37,2013-09-07 23:46:00,
2013-09-07 19:51:00,64.5,61.8,29.85,SSW,206,0.1,3.5,91,0.00,BKN,,0.30,WeatherDisplay:10.37,2013-09-07 23:51:00,
2013-09-07 19:56:00,64.5,61.8,29.86,SSW,207,2.3,3.5,91,0.00,BKN,,0.30,WeatherDisplay:10.37,2013-09-07 23:56:00,
2013-09-07 20:01:00,64.5,61.8,29.85,SSW,206,0.1,3.5,91,0.00,BKN,,0.30,WeatherDisplay:10.37,2013-09-08 00:01:00,
2013-09-07 20:06:00,64.4,62.0,29.86,SSW,198,0.0,3.5,92,0.00,BKN,,0.30,WeatherDisplay:10.37,2013-09-08 00:06:00,
2013-09-07 20:11:00,64.1,61.4,29.86,SSW,198,0.0,0.0,91,0.00,BKN,,0.30,WeatherDisplay:10.37,2013-09-08 00:11:00,
2013-09-07 20:16:00,63.9,61.2,29.86,SSW,198,0.0,0.0,91,0.00,BKN,,0.30,WeatherDisplay:10.37,2013-09-08 00:16:00,
2013-09-07 20:21:00,63.6,61.2,29.86,SSW,196,0.3,2.3,92,0.00,BKN,,0.30,WeatherDisplay:10.37,2013-09-08 00:21:00,
2013-09-07 20:26:00,63.5,61.1,29.86,SSW,197,0.0,0.0,92,0.00,BKN,,0.30,WeatherDisplay:10.37,2013-09-08 00:26:00,
2013-09-07 20:31:00,63.4,61.0,29.86,SSW,197,0.6,3.5,92,0.00,BKN,,0.30,WeatherDisplay:10.37,2013-09-08 00:31:00,
2013-09-07 20:36:00,63.4,61.0,29.86,SSW,197,0.0,0.0,92,0.00,BKN,,0.30,WeatherDisplay:10.37,2013-09-08 00:36:00,
2013-09-07 20:41:00,63.4,61.0,29.86,SSW,197,1.2,3.5,92,0.00,BKN,,0.30,WeatherDisplay:10.37,2013-09-08 00:41:00,
2013-09-07 20:46:00,63.5,61.1,29.86,SSW,197,0.0,1.2,92,0.00,BKN,,0.30,WeatherDisplay:10.37,2013-09-08 00:46:00,
2013-09-07 20:51:00,63.7,61.3,29.86,SSW,197,0.0,0.0,92,0.00,BKN,,0.30,WeatherDisplay:10.37,2013-09-08 00:51:00,
2013-09-07 20:56:00,63.8,61.7,29.86,SSW,197,0.0,4.0,93,0.00,BKN,,0.30,WeatherDisplay:10.37,2013-09-08 00:56:00,
2013-09-07 21:01:00,64.1,62.0,29.86,SSW,197,0.0,0.0,93,0.00,BKN,,0.30,WeatherDisplay:10.37,2013-09-08 01:01:00,
2013-09-07 21:06:00,64.2,62.1,29.86,SSW,197,0.0,3.5,93,0.00,BKN,,0.30,WeatherDisplay:10.37,2013-09-08 01:06:00,
2013-09-07 21:11:00,64.2,62.2,29.86,SSW,197,0.0,0.0,93,0.00,BKN,,0.30,WeatherDisplay:10.37,2013-09-08 01:11:00,
2013-09-07 21:16:00,64.1,62.0,29.85,SSW,196,0.0,0.0,93,0.00,BKN,,0.30,WeatherDisplay:10.37,2013-09-08 01:16:00,
2013-09-07 21:21:00,64.0,61.9,29.85,SSW,196,0.0,0.0,93,0.00,-RA,,0.30,WeatherDisplay:10.37,2013-09-08 01:21:00,
2013-09-07 21:26:00,64.0,61.9,29.85,SSW,197,0.0,0.0,93,0.00,-RA,,0.30,WeatherDisplay:10.37,2013-09-08 01:26:00,
2013-09-07 21:31:00,63.9,61.8,29.85,SSW,197,0.3,0.0,93,0.00,-RA,,0.30,WeatherDisplay:10.37,2013-09-08 01:31:00,
2013-09-07 21:36:00,63.9,61.8,29.85,SSW,197,0.0,0.0,93,0.00,-RA,,0.30,WeatherDisplay:10.37,2013-09-08 01:36:00,
2013-09-07 21:41:00,64.0,61.9,29.85,SSW,197,0.0,0.0,93,0.00,OVC,,0.30,WeatherDisplay:10.37,2013-09-08 01:41:00,
2013-09-07 21:46:00,64.0,61.9,29.84,SSW,197,0.0,0.0,93,0.00,OVC,,0.30,WeatherDisplay:10.37,2013-09-08 01:46:00,
2013-09-07 21:51:00,64.1,62.0,29.84,SSW,196,0.0,0.0,93,0.00,OVC,,0.30,WeatherDisplay:10.37,2013-09-08 01:51:00,
2013-09-07 21:56:00,64.2,62.1,29.84,SSW,196,0.0,0.0,93,0.00,OVC,,0.30,WeatherDisplay:10.37,2013-09-08 01:56:00,
2013-09-07 22:01:00,64.3,62.2,29.84,SSW,196,0.0,0.0,93,0.00,OVC,,0.30,WeatherDisplay:10.37,2013-09-08 02:01:00,
2013-09-07 22:06:00,64.7,62.6,29.84,SSW,196,0.0,0.0,93,0.00,OVC,,0.30,WeatherDisplay:10.37,2013-09-08 02:06:00,
2013-09-07 22:11:00,64.9,62.8,29.84,SSW,197,0.0,0.0,93,0.00,OVC,,0.30,WeatherDisplay:10.37,2013-09-08 02:11:00,
2013-09-07 22:16:00,65.2,63.1,29.84,SSW,198,0.2,2.3,93,0.00,OVC,,0.30,WeatherDisplay:10.37,2013-09-08 02:16:00,
2013-09-07 22:21:00,65.4,63.3,29.84,SSW,198,0.0,1.2,93,0.00,OVC,,0.30,WeatherDisplay:10.37,2013-09-08 02:21:00,
2013-09-07 22:26:00,65.5,63.4,29.84,SSW,198,0.0,0.0,93,0.00,OVC,,0.30,WeatherDisplay:10.37,2013-09-08 02:26:00,
2013-09-07 22:31:00,65.6,63.5,29.84,SSW,199,0.1,2.3,93,0.00,OVC,,0.30,WeatherDisplay:10.37,2013-09-08 02:31:00,
2013-09-07 22:36:00,65.6,63.5,29.84,SSW,200,0.0,0.0,93,0.00,OVC,,0.30,WeatherDisplay:10.37,2013-09-08 02:36:00,
2013-09-07 22:41:00,65.8,63.7,29.84,SSW,199,0.0,0.0,93,0.00,OVC,,0.30,WeatherDisplay:10.37,2013-09-08 02:41:00,
2013-09-07 22:46:00,65.9,63.8,29.84,SSW,199,0.9,3.5,93,0.00,OVC,,0.30,WeatherDisplay:10.37,2013-09-08 02:46:00,
2013-09-07 22:51:00,66.1,64.0,29.84,SSW,205,1.2,3.5,93,0.00,OVC,,0.30,WeatherDisplay:10.37,2013-09-08 02:51:00,
2013-09-07 22:56:00,66.2,64.1,29.84,SSW,205,0.1,1.2,93,0.00,OVC,,0.30,WeatherDisplay:10.37,2013-09-08 02:56:00,
2013-09-07 23:01:00,66.4,64.3,29.85,SSW,205,0.0,0.0,93,0.00,OVC,,0.30,WeatherDisplay:10.37,2013-09-08 03:01:00,
2013-09-07 23:06:00,66.5,64.4,29.84,SSW,205,0.0,0.0,93,0.00,OVC,,0.30,WeatherDisplay:10.37,2013-09-08 03:06:00,
2013-09-07 23:11:00,66.6,64.5,29.84,SSW,205,0.3,2.3,93,0.00,OVC,,0.30,WeatherDisplay:10.37,2013-09-08 03:11:00,
2013-09-07 23:16:00,66.6,64.5,29.84,SSW,205,0.0,0.0,93,0.00,OVC,,0.30,WeatherDisplay:10.37,2013-09-08 03:16:00,
2013-09-07 23:21:00,66.6,64.5,29.84,SSW,205,0.1,0.0,93,0.00,OVC,,0.30,WeatherDisplay:10.37,2013-09-08 03:21:00,
2013-09-07 23:26:00,66.6,64.5,29.84,SSW,205,0.0,0.0,93,0.00,OVC,,0.30,WeatherDisplay:10.37,2013-09-08 03:26:00,
2013-09-07 23:31:00,66.5,64.4,29.84,SSW,205,0.0,0.0,93,0.00,OVC,,0.30,WeatherDisplay:10.37,2013-09-08 03:31:00,
2013-09-07 23:36:00,66.3,64.2,29.83,SSW,205,0.0,0.0,93,0.00,OVC,,0.30,WeatherDisplay:10.37,2013-09-08 03:36:00,
2013-09-07 23:41:00,66.1,64.0,29.83,SSW,205,0.0,0.0,93,0.00,OVC,,0.30,WeatherDisplay:10.37,2013-09-08 03:41:00,
2013-09-07 23:46:00,66.0,63.9,29.83,SSW,205,0.0,0.0,93,0.00,OVC,,0.30,WeatherDisplay:10.37,2013-09-08 03:46:00,
2013-09-07 23:51:00,65.9,63.8,29.83,SSW,205,0.0,0.0,93,0.00,OVC,,0.30,WeatherDisplay:10.37,2013-09-08 03:51:00,
2013-09-07 23:56:00,65.9,63.8,29.83,SSW,205,0.0,0.0,93,0.00,OVC,,0.30,WeatherDisplay:10.37,2013-09-08 03:56:00,